Location: Texas Valley
(42.4862°N, 75.9730°W)
Time: 02:03:36
(UTC+00:00)

Tiangong - Pass Details

Date: 22 April 2024
Orbit: 372 x 375 km, 41.5° (Epoch: 20 May)

Event Time Altitude Azimuth Distance (km) Brightness Sun altitude
Rises 01:56:42 0° 272° (W) 2,255 2.6 -20.6°
Reaches altitude 10° 01:58:47 10° 270° (W) 1,397 1.3 -20.9°
Enters shadow 02:00:58 40° 257° (WSW) 573 -1.1 -21.2°
